Flag for Australia Weather past 2 weeks in Eucla, Western Australia, Australia

Now
64 °F

Mild.


Feels Like: 64 °F
Forecast: 60 / 77 °F
Wind: 10 mph from East

Location: Eucla Amo

Current Time: Jan 28, 2015 at 5:52:19 AM

Latest Report: Jan 28, 2015 at 3:45 AM


Visibility: N/A

Pressure: 29.99 "Hg

Humidity: 70%

Dew point: 54 °F

Location of EuclaLocation

Historic Weather in Eucla — Graph

°F

Eucla temperature yesterday

Maximum temperature yesterday: 73 °F (at 12:45 PM)
Minimum temperature yesterday: 64 °F (at 2:45 AM)
Average temperature yesterday: 67 °F

Past Weeks' High & Low Weather Summary

 TemperatureHumidityPressure
High93 °F (Jan 19, 12:45 PM)95% (Jan 24, 5:45 AM)30.12 "Hg (Jan 24, 5:45 AM)
Low53 °F (Jan 24, 2:45 AM)19% (Jan 19, 9:45 AM)29.60 "Hg (Jan 19, 12:45 PM)
Average68 °F66%29.95 "Hg
* Reported Jan 13 3:45 AM — Jan 28 3:45 AM, Eucla, Weather by CustomWeather, © 2014

Note: Actual official high and low records may vary slightly from our data, if they occured in-between our weather recording intervals... More about our weather records

Advertising

Eucla weather history for previous 24 hours

 ConditionsComfort  
Time TempWeatherWind HumidityBarometerVisibility
3:45 AM
Jan 28
64 °FMild.10 mph70%29.99 "HgN/A
2:45 AM63 °FMild.10 mph70%29.99 "HgN/A
12:45 AM64 °FMild.13 mph67%30.01 "HgN/A
11:45 PM
Jan 27
64 °FMild.13 mph66%30.02 "HgN/A
9:45 PM64 °FMild.14 mph66%30.04 "HgN/A
8:45 PM65 °FMild.15 mph66%30.04 "HgN/A
6:45 PM66 °FMild.14 mph64%30.02 "HgN/A
5:45 PM68 °FMild.16 mph60%30.01 "HgN/A
3:45 PM70 °FScattered clouds.18 mph55%30.01 "Hg25 mi
2:45 PM73 °FMild.16 mph51%30.01 "HgN/A
12:45 PM73 °FMild.16 mph48%30.04 "HgN/A
11:45 AM72 °FMild.16 mph50%30.06 "HgN/A
9:45 AM71 °FPassing clouds.14 mph50%30.08 "Hg25 mi
8:45 AM69 °FMild.16 mph52%30.08 "HgN/A
6:45 AM66 °FMild.10 mph57%30.06 "HgN/A
5:45 AM64 °FMild.10 mph65%30.05 "HgN/A
Weather by CustomWeather, © 2014

See weather overviewHow to use our weather pages